EW7144 Weather Reports


Display with metric or nautical units.
time (UTC)temp
F
wind
direction
speed
MPH
gust
MPH
rain 1hr
in
rain 24hr
in
rain mn
in
humidity
%
barometer
mb
20260904192906 51 343 3.0 6.0 0.00 0.00 0.00 81 1015.3
20260904191906 51 353 2.0 7.0 0.00 0.00 0.00 81 1015.3
20260904191406 51 327 3.0 5.0 0.00 0.00 0.00 81 1015.0
20260904190906 51 320 3.0 6.0 0.00 0.00 0.00 81 1014.9
20260904190406 50 249 2.0 5.0 0.00 0.00 0.00 81 1014.9
20260904185905 50 241 1.0 3.0 0.00 0.00 0.00 81 1014.9
20260904185406 50 332 2.0 5.0 0.00 0.00 0.00 81 1014.9
20260904184906 50 234 1.0 7.0 0.00 0.00 0.00 80 1014.9
20260904184406 50 254 3.0 8.0 0.00 0.00 0.00 80 1014.9
20260904183907 50 243 2.0 5.0 0.00 0.00 0.00 80 1014.8
20260904183406 50 207 2.0 5.0 0.00 0.00 0.00 80 1014.8
20260904182906 50 207 2.0 5.0 0.00 0.00 0.00 79 1014.7
20260904182406 50 276 1.0 3.0 0.00 0.00 0.00 79 1014.8
20260904181905 50 218 2.0 5.0 0.00 0.00 0.00 79 1014.8
20260904180906 51 243 2.0 3.0 0.00 0.00 0.00 79 1014.7
20260904180406 51 228 3.0 9.0 0.00 0.00 0.00 79 1014.8
20260904175406 51 324 2.0 5.0 0.00 0.00 0.00 78 1014.8
20260904174906 51 218 2.0 6.0 0.00 0.00 0.00 78 1014.8
20260904174406 51 239 2.0 6.0 0.00 0.00 0.00 78 1014.7
20260904173906 51 214 2.0 7.0 0.00 0.00 0.00 78 1014.7
20260904173406 51 218 2.0 7.0 0.00 0.00 0.00 77 1014.7
20260904172906 51 218 2.0 7.0 0.00 0.00 0.00 77 1014.6
20260904172406 51 208 4.0 8.0 0.00 0.00 0.00 77 1014.6
20260904171906 51 200 4.0 14.0 0.00 0.00 0.00 77 1014.5
20260904171406 51 207 5.0 12.0 0.00 0.00 0.00 77 1014.5
20260904170906 51 193 4.0 12.0 0.00 0.00 0.00 77 1014.4
20260904170406 51 199 5.0 12.0 0.00 0.00 0.00 77 1014.3
20260904165906 51 200 6.0 12.0 0.00 0.00 0.00 78 1014.2
20260904165406 51 216 6.0 12.0 0.00 0.00 0.00 78 1014.2
20260904164406 51 239 3.0 12.0 0.00 0.00 0.00 78 1014.1
20260904163906 51 219 3.0 9.0 0.00 0.00 0.00 77 1014.0
20260904163407 51 216 4.0 12.0 0.00 0.00 0.00 77 1013.8
20260904162406 51 209 4.0 10.0 0.00 0.00 0.00 77 1013.6
20260904161906 52 205 5.0 12.0 0.00 0.00 0.00 76 1013.5
20260904161406 52 223 6.0 14.0 0.00 0.00 0.00 76 1013.4
20260904160906 52 196 5.0 12.0 0.00 0.00 0.00 76 1013.3
20260904160406 52 198 5.0 18.0 0.00 0.00 0.00 76 1013.2
20260904155906 52 219 7.0 16.0 0.00 0.00 0.00 76 1013.1
20260904155406 52 224 6.0 17.0 0.00 0.00 0.00 76 1013.0
20260904154906 52 200 6.0 18.0 0.00 0.00 0.00 77 1013.0
20260904154406 52 204 9.0 20.0 0.00 0.00 0.00 77 1013.0
20260904153906 52 236 3.0 12.0 0.00 0.00 0.00 77 1013.1
20260904153406 52 209 5.0 16.0 0.00 0.00 0.00 77 1013.1
20260904152905 53 230 4.0 13.0 0.00 0.00 0.00 77 1013.0
20260904152406 53 239 6.0 17.0 0.00 0.00 0.00 77 1012.9
20260904151906 53 202 8.0 16.0 0.00 0.00 0.00 77 1012.8
20260904151406 53 206 7.0 15.0 0.00 0.00 0.00 77 1012.8
20260904150906 53 193 8.0 17.0 0.00 0.00 0.00 77 1012.8
20260904150406 53 211 9.0 18.0 0.00 0.00 0.00 77 1012.8
20260904145906 53 217 7.0 20.0 0.00 0.00 0.00 77 1012.8
20260904145406 52 220 7.0 18.0 0.00 0.00 0.00 77 1012.8
20260904144905 53 196 6.0 14.0 0.00 0.00 0.00 76 1012.9
20260904144406 53 198 8.0 21.0 0.00 0.00 0.00 76 1012.9
20260904143906 53 203 7.0 17.0 0.00 0.00 0.00 76 1012.9
20260904143406 53 195 8.0 20.0 0.00 0.00 0.00 76 1012.9
20260904142906 53 218 6.0 14.0 0.00 0.00 0.00 76 1013.0
20260904142406 53 203 7.0 17.0 0.00 0.00 0.00 76 1013.0
20260904141906 54 199 7.0 18.0 0.00 0.00 0.00 76 1012.9
20260904140906 53 211 9.0 21.0 0.00 0.00 0.00 76 1012.8
20260904140406 53 211 7.0 18.0 0.00 0.00 0.00 76 1012.8
20260904135406 53 229 6.0 23.0 0.00 0.00 0.00 76 1012.7
20260904134906 54 206 7.0 21.0 0.00 0.00 0.00 76 1012.8
20260904134406 53 215 9.0 26.0 0.00 0.00 0.00 76 1012.7
20260904133907 53 208 6.0 15.0 0.00 0.00 0.00 75 1012.6
20260904132906 53 216 10.0 22.0 0.00 0.00 0.00 76 1012.3
20260904132407 53 203 9.0 20.0 0.00 0.00 0.00 77 1012.3
20260904131906 53 194 6.0 21.0 0.00 0.00 0.00 77 1012.3
20260904131406 53 215 6.0 26.0 0.00 0.00 0.00 77 1012.3
20260904130906 53 202 10.0 20.0 0.00 0.00 0.00 77 1012.2
20260904130406 53 231 7.0 18.0 0.00 0.00 0.00 76 1012.2
20260904125906 53 202 5.0 20.0 0.00 0.00 0.00 76 1011.9
20260904124906 53 191 8.0 18.0 0.00 0.00 0.00 76 1011.8
20260904124405 53 192 9.0 20.0 0.00 0.00 0.00 77 1011.7
20260904123906 53 216 10.0 25.0 0.00 0.00 0.00 77 1011.6
20260904123406 52 189 7.0 20.0 0.00 0.00 0.00 78 1011.5
20260904121906 52 203 9.0 16.0 0.00 0.00 0.00 79 1011.3
20260904121407 52 288 5.0 17.0 0.00 0.00 0.00 78 1011.3
20260904120906 52 234 7.0 18.0 0.00 0.00 0.00 78 1011.4
20260904115906 52 196 7.0 21.0 0.00 0.00 0.00 78 1011.3
20260904114906 53 240 6.0 20.0 0.00 0.00 0.00 77 1011.1
20260904114408 53 201 10.0 28.0 0.00 0.00 0.00 76 1011.1
20260904113906 53 202 9.0 28.0 0.00 0.00 0.00 76 1011.1
20260904113406 54 217 8.0 21.0 0.00 0.00 0.00 76 1011.1
20260904112907 53 222 8.0 16.0 0.00 0.00 0.00 76 1011.0
20260904112406 53 228 10.0 21.0 0.00 0.00 0.00 76 1010.9
20260904111906 53 199 8.0 21.0 0.00 0.00 0.00 76 1010.8
20260904110906 53 226 7.0 20.0 0.00 0.00 0.00 75 1010.9
20260904110406 53 220 7.0 18.0 0.00 0.00 0.00 75 1011.0
20260904105907 53 216 8.0 20.0 0.00 0.00 0.00 74 1010.9
20260904105407 53 206 7.0 20.0 0.00 0.00 0.00 74 1011.0
20260904104907 53 300 9.0 26.0 0.00 0.00 0.00 74 1010.8
20260904103906 53 216 5.0 13.0 0.00 0.00 0.00 75 1010.7
20260904103406 53 209 7.0 24.0 0.00 0.00 0.00 74 1010.5
20260904102906 53 218 10.0 22.0 0.00 0.00 0.00 75 1010.4
20260904102410 53 259 10.0 24.0 0.00 0.00 0.00 75 1010.2
20260904101906 53 256 9.0 20.0 0.00 0.00 0.00 76 1010.2
20260904100906 53 223 10.0 22.0 0.00 0.00 0.00 75 1010.3
20260904100407 53 225 10.0 28.0 0.00 0.00 0.00 75 1010.3
20260904095907 53 226 7.0 20.0 0.00 0.00 0.00 75 1010.2
20260904094906 53 194 6.0 14.0 0.00 0.00 0.00 74 1010.0
20260904094406 53 222 10.0 21.0 0.00 0.00 0.00 74 1010.0
20260904093906 53 215 9.0 20.0 0.00 0.00 0.00 75 1009.9
20260904093406 53 233 8.0 18.0 0.00 0.00 0.00 74 1009.9
20260904091906 53 264 8.0 21.0 0.00 0.00 0.00 76 1009.7
20260904091406 53 214 11.0 21.0 0.00 0.00 0.00 76 1009.4
20260904090906 53 237 9.0 20.0 0.00 0.00 0.00 76 1009.6
20260904090406 53 244 12.0 23.0 0.00 0.00 0.00 75 1009.6
20260904085906 53 229 7.0 22.0 0.00 0.00 0.00 76 1009.5
20260904085406 53 226 9.0 25.0 0.00 0.00 0.00 75 1009.5
20260904084906 53 228 12.0 25.0 0.00 0.00 0.00 75 1009.3
20260904084406 53 204 7.0 24.0 0.00 0.00 0.00 76 1009.2
20260904083906 53 224 13.0 25.0 0.00 0.00 0.00 75 1009.2
20260904083406 53 206 11.0 23.0 0.00 0.00 0.00 76 1009.1
20260904082907 53 223 10.0 23.0 0.00 0.00 0.00 77 1008.9
20260904081906 53 239 9.0 28.0 0.00 0.00 0.00 79 1008.7
20260904081406 53 200 12.0 23.0 0.00 0.00 0.00 80 1008.5
20260904080906 53 245 9.0 26.0 0.00 0.00 0.00 80 1008.3
20260904080406 53 210 14.0 28.0 0.00 0.00 0.00 81 1007.9
20260904075906 53 214 14.0 30.0 0.00 0.00 0.00 81 1007.8
20260904075406 53 317 12.0 28.0 0.00 0.00 0.00 81 1007.7
20260904074906 52 219 10.0 26.0 0.00 0.00 0.00 82 1007.8
20260904074410 52 201 8.0 24.0 0.00 0.00 0.00 82 1007.7
20260904073406 51 214 9.0 25.0 0.00 0.00 0.00 81 1007.9
20260904072906 51 202 11.0 24.0 0.00 0.00 0.00 81 1007.8
20260904072406 51 206 11.0 26.0 0.00 0.00 0.00 81 1007.6
20260904071906 51 234 11.0 23.0 0.00 0.00 0.00 81 1007.6
20260904065406 50 214 18.0 32.0 0.00 0.00 0.00 84 1007.5
20260904064906 49 211 17.0 36.0 0.00 0.00 0.00 85 1007.3
20260904064406 49 217 15.0 32.0 0.00 0.00 0.00 86 1007.3
20260904063906 49 221 16.0 35.0 0.00 0.00 0.00 86 1007.3
20260904063406 49 248 15.0 26.0 0.00 0.00 0.00 87 1007.1
20260904062906 49 212 13.0 31.0 0.00 0.00 0.00 87 1007.2
20260904062406 49 222 13.0 28.0 0.00 0.00 0.00 86 1007.3
20260904061907 50 225 14.0 32.0 0.00 0.00 0.00 86 1007.6
20260904061406 50 201 12.0 29.0 0.00 0.00 0.00 85 1007.7
20260904060406 52 232 14.0 29.0 0.00 0.00 0.00 82 1007.9
20260904055906 54 283 14.0 25.0 0.00 0.00 0.00 81 1007.6
20260904055405 55 320 15.0 28.0 0.00 0.00 0.00 80 1007.3
20260904054906 55 321 10.0 22.0 0.00 0.00 0.00 81 1007.1
20260904054405 55 319 10.0 26.0 0.00 0.00 0.00 80 1006.9
20260904053406 55 300 11.0 23.0 0.00 0.00 0.00 80 1007.0
20260904052905 55 307 13.0 33.0 0.00 0.00 0.00 80 1007.0
20260904052406 55 236 12.0 26.0 0.00 0.00 0.00 80 1007.1
20260904051906 55 244 12.0 25.0 0.00 0.00 0.00 80 1007.0
20260904050906 54 233 9.0 21.0 0.00 0.00 0.00 81 1007.2
20260904050405 54 250 12.0 23.0 0.00 0.00 0.00 82 1007.1
20260904045906 54 235 12.0 28.0 0.00 0.00 0.00 83 1007.1
20260904045405 52 308 9.0 20.0 0.00 0.00 0.00 84 1007.1
20260904044906 51 301 9.0 20.0 0.00 0.00 0.00 85 1007.3
20260904044405 51 264 12.0 22.0 0.00 0.00 0.00 84 1007.3
20260904043905 51 252 11.0 26.0 0.00 0.00 0.00 84 1007.4
20260904043405 51 205 14.0 26.0 0.00 0.00 0.00 84 1007.5
20260904042406 54 235 16.0 37.0 0.00 0.00 0.00 83 1007.1
20260904041906 54 225 11.0 24.0 0.00 0.00 0.00 84 1006.6
20260904041406 55 264 11.0 22.0 0.00 0.00 0.00 84 1006.6
20260904040905 54 221 10.0 24.0 0.00 0.00 0.00 84 1006.7
20260904040406 54 272 12.0 22.0 0.00 0.00 0.00 81 1006.7
20260904035905 56 271 10.0 25.0 0.00 0.00 0.00 78 1007.2
20260904035405 58 317 13.0 29.0 0.00 0.00 0.00 75 1006.6
20260904034905 59 326 14.0 29.0 0.00 0.00 0.00 74 1006.6
20260904034405 59 341 10.0 26.0 0.00 0.00 0.00 73 1006.4
20260904033905 59 272 12.0 24.0 0.00 0.00 0.00 73 1006.2
20260904033406 59 295 12.0 26.0 0.00 0.00 0.00 74 1006.2
20260904032906 59 320 8.0 22.0 0.00 0.00 0.00 76 1005.9
20260904031906 57 293 9.0 20.0 0.00 0.00 0.00 76 1006.0
20260904031406 57 283 10.0 23.0 0.00 0.00 0.00 74 1006.1
20260904030905 58 322 13.0 23.0 0.00 0.00 0.00 73 1006.2
20260904030406 59 252 11.0 26.0 0.00 0.00 0.00 71 1006.0
20260904025406 59 302 10.0 24.0 0.00 0.00 0.00 71 1006.2
20260904024905 59 315 11.0 24.0 0.00 0.00 0.00 70 1005.9
20260904024406 59 300 12.0 24.0 0.00 0.00 0.00 70 1006.0
20260904023406 60 224 10.0 22.0 0.00 0.00 0.00 71 1005.8
20260904022905 59 296 11.0 26.0 0.00 0.00 0.00 71 1005.8
20260904022406 59 238 12.0 28.0 0.00 0.00 0.00 70 1005.8
20260904021905 59 225 13.0 30.0 0.00 0.00 0.00 70 1005.6
20260904021406 59 221 13.0 26.0 0.00 0.00 0.00 70 1005.6
20260904020906 60 259 10.0 29.0 0.00 0.00 0.00 71 1005.6
20260904020406 60 214 12.0 26.0 0.00 0.00 0.00 71 1005.6
20260904015905 59 332 9.0 22.0 0.00 0.00 0.00 70 1005.6
20260904015405 60 333 11.0 23.0 0.00 0.00 0.00 72 1005.7
20260904014906 60 317 10.0 26.0 0.00 0.00 0.00 73 1005.7
20260904014406 60 340 7.0 22.0 0.00 0.00 0.00 74 1005.8
20260904013905 60 327 10.0 20.0 0.00 0.00 0.00 73 1005.8
20260904013406 60 330 12.0 22.0 0.00 0.00 0.00 73 1005.9
20260904012906 60 331 10.0 20.0 0.00 0.00 0.00 72 1006.0
20260904011905 60 216 11.0 22.0 0.00 0.00 0.00 70 1006.1
20260904011406 60 324 12.0 26.0 0.00 0.00 0.00 70 1006.1
20260904010906 60 238 10.0 22.0 0.00 0.00 0.00 70 1006.1
20260904010405 60 336 9.0 20.0 0.00 0.00 0.00 69 1006.2
20260904005906 60 326 8.0 20.0 0.00 0.00 0.00 71 1006.3
20260904005406 59 285 8.0 20.0 0.00 0.00 0.00 71 1006.3
20260904004905 60 280 10.0 21.0 0.00 0.00 0.00 72 1006.4
20260904004406 60 311 10.0 24.0 0.00 0.00 0.00 73 1006.4
20260904003906 60 293 9.0 28.0 0.00 0.00 0.00 74 1006.2
20260904003406 59 298 12.0 22.0 0.00 0.00 0.00 73 1006.2
20260904002906 60 341 9.0 24.0 0.00 0.00 0.00 73 1006.2
20260904002405 60 291 9.0 24.0 0.00 0.00 0.00 74 1006.2
20260904001908 59 258 12.0 24.0 0.00 0.00 0.00 71 1006.1
20260904000906 59 332 12.0 26.0 0.00 0.00 0.00 72 1006.1
20260904000406 59 282 10.0 26.0 0.00 0.00 0.00 73 1005.9
20260903235907 59 320 7.0 29.0 0.00 0.00 0.00 75 1006.0
20260903235406 59 320 9.0 20.0 0.00 0.00 0.00 75 1005.9
20260903234906 59 294 10.0 23.0 0.00 0.00 0.00 74 1005.7
20260903234406 59 293 12.0 30.0 0.00 0.00 0.00 74 1005.5
20260903233906 59 313 10.0 21.0 0.00 0.00 0.00 75 1005.5
20260903233406 59 336 12.0 26.0 0.00 0.00 0.00 74 1005.3
20260903232906 59 318 11.0 29.0 0.00 0.00 0.00 75 1005.3
20260903231906 59 323 10.0 20.0 0.00 0.00 0.00 75 1005.3
20260903230905 59 236 9.0 18.0 0.00 0.00 0.00 74 1005.3
20260903225906 58 281 10.0 26.0 0.00 0.00 0.00 77 1005.2
20260903225406 58 325 13.0 26.0 0.00 0.00 0.00 75 1005.2
20260903224406 58 327 9.0 26.0 0.00 0.00 0.00 78 1004.8
20260903223906 58 249 11.0 24.0 0.00 0.00 0.00 79 1004.8
20260903223406 58 301 9.0 26.0 0.00 0.00 0.00 80 1004.9
20260903222906 57 222 10.0 32.0 0.00 0.00 0.00 80 1004.9
20260903222406 57 205 11.0 23.0 0.00 0.00 0.00 80 1004.9
20260903221906 57 230 12.0 28.0 0.00 0.00 0.00 84 1004.9
20260903221405 56 257 9.0 25.0 0.00 0.00 0.00 86 1004.8
20260903220905 56 232 12.0 24.0 0.00 0.00 0.00 86 1004.8
20260903220406 55 222 9.0 22.0 0.00 0.00 0.00 87 1004.8
20260903215906 55 339 9.0 25.0 0.00 0.00 0.00 87 1004.8
20260903215405 56 299 14.0 30.0 0.00 0.00 0.00 86 1004.7
20260903214906 58 350 16.0 29.0 0.00 0.00 0.00 86 1004.7
20260903213906 59 337 9.0 23.0 0.00 0.00 0.00 88 1004.3
20260903213405 59 328 10.0 24.0 0.00 0.00 0.00 88 1004.3
20260903212906 58 314 13.0 28.0 0.00 0.00 0.00 89 1004.3
20260903212406 58 315 12.0 28.0 0.00 0.00 0.00 89 1004.3
20260903211405 58 342 9.0 24.0 0.00 0.00 0.00 90 1004.2
20260903210906 58 302 10.0 23.0 0.00 0.00 0.00 90 1004.1
20260903205906 57 315 11.0 24.0 0.00 0.00 0.00 91 1004.3
20260903205406 57 318 10.0 23.0 0.00 0.00 0.00 90 1004.2
20260903204906 57 309 7.0 20.0 0.00 0.00 0.00 91 1004.3
20260903204406 57 289 12.0 22.0 0.00 0.00 0.00 91 1004.2
20260903203406 57 319 13.0 24.0 0.00 0.00 0.00 91 1004.2
20260903202906 57 327 12.0 29.0 0.00 0.00 0.00 91 1004.2
20260903202405 57 327 11.0 22.0 0.00 0.00 0.00 91 1004.2
20260903201905 58 334 14.0 25.0 0.00 0.00 0.00 91 1004.1
20260903201406 57 328 18.0 35.0 0.00 0.00 0.00 91 1004.0
20260903200906 57 333 19.0 40.0 0.00 0.00 0.00 91 1003.9
20260903200406 58 351 18.0 35.0 0.00 0.00 0.00 91 1004.0
20260903195905 58 339 14.0 25.0 0.00 0.00 0.00 91 1003.9
20260903194905 58 341 17.0 30.0 0.00 0.00 0.00 91 1003.9
20260903194405 58 322 18.0 31.0 0.00 0.00 0.00 91 1004.0
20260903193906 58 348 20.0 32.0 0.00 0.00 0.00 91 1004.1
20260903193406 58 331 21.0 37.0 0.00 0.00 0.00 91 1003.9